SHASTA DAM (USBR) (SHA)

Elevation: 1067' · SACRAMENTO R basin · Operator: US Bureau of Reclamation

Provisional data, subject to change.
Query executed Thursday at 6:56:55   clock

Select a sensor type for a plot of data.
Note: Reservoir Flows are daily averages.

Earlier

Date RES ELE    STORAGE    RES CHG    TOC STO    ABV TOC    OUTFLOW    INFLOW    EVAP    FNF    RIV REL    PPT INC    RAIN    SPILL    DIS PWR   
 FEET   AF   AF   AF   AF   CFS   CFS   CFS   CFS   CFS   INCHES   INCHES   CFS   CFS  
07/23/2014 935.26 1644468 -9847 4552100 -2907632 7196 2365 133 2219 0 0.00 30.55 0 7196
07/24/2014 934.75 1636766 -7702 4552100 -2915334 6674 2950 159 2200 0 0.00 30.55 0 6674
07/25/2014 934.17 1628037 -8729 4552100 -2924063 6967 2742 176 2350 0 0.00 30.55 0 6967
07/26/2014 933.50 1618001 -10036 4552100 -2934099 7132 2270 198 2298 0 0.00 30.55 0 7132
07/27/2014 932.91 1609186 -8815 4552100 -2942914 6729 2482 197 2335 0 0.00 30.55 0 6729
07/28/2014 932.30 1600122 -9064 4552100 -2951978 7558 3176 188 2388 0 0.00 30.55 0 7558
07/29/2014 931.66 1590646 -9476 4552100 -2961454 6480 1885 182 2315 0 0.00 30.55 0 6480
07/30/2014 931.06 1581789 -8857 4552100 -2970311 6391 2099 173 2193 0 0.00 30.55 0 6391
07/31/2014 930.60 1575037 -6752 4552100 -2977063 6176 2979 207 2550 0 0.00 30.55 0 6176
08/01/2014 929.88 1564489 -10548 4552100 -2987611 7207 2095 206 1811 e 0 0.00 30.55 0 7207
08/02/2014 929.51 1559098 -5391 4552100 -2993002 6374 3823 167 1916 0 0.00 30.55 0 6374
08/03/2014 928.98 1551378 -7720 4552100 -3000722 6479 2779 192 1811 e 0 0.00 30.55 0 6479
08/04/2014 928.27 1541101 -10277 4552100 -3010999 7530 2523 174 2340 0 0.00 30.55 0 7530
08/05/2014 927.63 1531872 -9229 4552100 -3020228 6086 1518 85 2470 0 0.08 30.63 0 6086
08/06/2014 926.75 1519242 -12630 4552100 -3032858 7684 1341 25 2406 0 0.37 31.00 0 7684
08/07/2014 925.97 1508102 -11140 4552100 -3043998 7513 1998 101 2390 0 0.00 31.00 0 7513
08/08/2014 925.37 1499587 -8515 4552100 -- 6211 2043 125 2283 0 0.00 31.00 0 6211
08/09/2014 924.81 1491658 -7929 4552100 -3060442 6080 2270 187 2489 0 0.00 31.00 0 6080
08/10/2014 924.32 1484751 -6907 4552100 -3067349 5768 2452 166 2403 0 0.00 31.00 0 5768
08/11/2014 923.96 1479680 -5071 4552100 -3072420 5620 3187 124 2407 0 0.00 31.00 0 5620
08/12/2014 923.56 1474078 -5602 4552100 -3078022 5277 2585 132 2328 0 0.00 31.00 0 5277
08/13/2014 923.12 1467916 -6162 4552100 -3084184 5567 2588 128 2329 0 0.00 31.00 0 5567
08/14/2014 922.71 1462201 -5715 4552100 -3089899 5259 2501 123 2404 0 0.00 31.00 0 5259
08/15/2014 922.22 1455384 -6817 4552100 -3096716 5773 2479 143 2265 0 0.00 31.00 0 5773
08/16/2014 921.78 1449284 -6100 4552100 -3102816 5331 2395 139 2378 0 0.00 31.00 0 5331
08/17/2014 921.33 1443066 -6218 4552100 -3109034 5251 2263 147 2376 0 0.00 31.00 0 5251
08/18/2014 920.90 1437133 -5933 4552100 -3114967 5064 2235 162 2255 0 0.00 31.00 0 5064
08/19/2014 920.41 1430408 -6725 4552100 -3121692 5161 1933 162 2419 0 0.00 31.00 0 5161
08/20/2014 919.95 1424095 -6313 -- -- 5440 2414 157 2471 0 0.00 -- 0 5440
08/21/2014 -- -- -- -- -- -- -- -- -- -- -- -- -- --

Later | Latest

Warning! This data is preliminary and subject to revision.

Download Data Now Download Data Now | Show SHA Map | Plot SHA Data | 1 Month SHA Data | Real-Time SHA Data | SHA Info